International Falls, MN

12:18 PM CDT on May 23, 2018 (GMT -0500)
Falls International

Weather History for KINL - November, 2012

Change the Weather History Date:

Sunday, November 4, 2012

  Actual Average Record
Temperature  
Mean Temperature 25 °F 32 °F  
Max Temperature 33 °F 41 °F 67 °F (1975)
Min Temperature 16 °F 24 °F -2 °F (1991)
Degree Days  
Heating Degree Days 40 33  
Month to date heating degree days 147 127  
Since 1 July heating degree days 1469 1404  
Cooling Degree Days 0 0  
Month to date cooling degree days 0 0  
Year to date cooling degree days 222 192  
Moisture  
Dew Point 25 °F    
Average Humidity 89    
Maximum Humidity 100    
Minimum Humidity 78    
Precipitation  
Precipitation T in 0.05 in 0.60 in (2003)
Month to date precipitation 0.04 0.21  
Year to date precipitation 22.98 22.24  
Snow  
Snow T in 0.30 in 9.00 in (2003)
Month to date snowfall 0.2 1.1  
Since 1 July snowfall 1.9 3.4  
Since 1 September snowfall 1.9 3.4  
Snow Depth 0.00 in    
Sea Level Pressure  
Sea Level Pressure 30.29 in    
Wind  
Wind Speed 3 mph (ESE)    
Max Wind Speed 8 mph    
Max Gust Speed 10 mph    
Visibility 6 miles    
Events Fog , Snow    
T = Trace of Precipitation, MM = Missing Value Source: NWS Daily Summary

Daily Weather History Graph

Daily Weather History Graph

Search for Another Location

Airport or City:

Astronomy

Nov. 04, 2012 Rise Set
Actual Time 7:05 AM CST 4:48 PM CST
Civil Twilight 6:32 AM CST 5:21 PM CST
Nautical Twilight 5:54 AM CST 5:58 PM CST
Astronomical Twilight 5:18 AM CST 6:35 PM CST
Moon 9:22 PM CST (11/4) 11:54 AM CST (11/4)
Length of Visible Light 10h 49m
Length of Day
9h 42m
Waning Gibbous, 72% of the Moon is Illuminated
Nov 4
Waning Gibbous
Nov 6
Last Quarter
Nov 13
New
Nov 20
First Quarter
Nov 28
Full

Hourly Weather History & Observations

Time (CST) Temp. Windchill Dew Point Humidity Pressure Visibility Wind Dir Wind Speed Gust Speed Precip Events Conditions
12:55 AM 16.0 °F - 14.0 °F 92% 30.31 in 10.0 mi Calm Calm - N/A   Clear
1:55 AM 17.1 °F - 14.0 °F 88% 30.31 in 10.0 mi Calm Calm - N/A   Clear
1:42 AM 15.8 °F 10.2 °F 12.2 °F 86% 30.25 in 10.0 mi NE 3.5 mph - N/A   Scattered Clouds
1:52 AM 17.6 °F - 15.8 °F 93% 30.25 in 10.0 mi Calm Calm - N/A   Mostly Cloudy
1:55 AM 18.0 °F - 16.0 °F 92% 30.32 in 10.0 mi Calm Calm - N/A   Mostly Cloudy
2:55 AM 27.0 °F - 26.1 °F 96% 30.31 in 10.0 mi Calm Calm - N/A   Overcast
3:50 AM 28.4 °F - 26.6 °F 93% 30.25 in 1.8 mi Calm Calm - N/A   Overcast
3:55 AM 28.0 °F 22.8 °F 27.0 °F 96% 30.31 in 1.2 mi ENE 4.6 mph - N/A   Overcast
4:21 AM 28.4 °F 24.6 °F 26.6 °F 93% 30.25 in 0.5 mi East 3.5 mph - N/A Fog Light Freezing Fog
4:55 AM 25.0 °F 20.7 °F 24.1 °F 96% 30.32 in 0.2 mi SE 3.5 mph - N/A Fog Light Freezing Fog
5:14 AM 24.8 °F - 24.8 °F 100% 30.26 in 0.5 mi Calm Calm - N/A Fog Light Freezing Fog
5:39 AM 24.8 °F 20.5 °F 24.8 °F 100% 30.26 in 0.2 mi East 3.5 mph - N/A Fog Light Freezing Fog
5:55 AM 25.0 °F 20.7 °F 24.1 °F 96% 30.32 in 0.2 mi ESE 3.5 mph - N/A Fog Light Freezing Fog
6:55 AM 26.1 °F - 26.1 °F 100% 30.32 in 0.5 mi Calm Calm - N/A Fog Light Freezing Fog
7:38 AM 26.6 °F - 26.6 °F 100% 30.26 in 1.0 mi Calm Calm - N/A   Overcast
7:55 AM 28.0 °F 22.8 °F 26.1 °F 92% 30.32 in 0.8 mi East 4.6 mph - N/A   Overcast
8:20 AM 28.4 °F 24.6 °F 26.6 °F 93% 30.26 in 0.2 mi ESE 3.5 mph - N/A Fog Light Freezing Fog
8:55 AM 27.0 °F 21.6 °F 26.1 °F 96% 30.32 in 0.2 mi East 4.6 mph - N/A Fog Light Freezing Fog
9:07 AM 26.6 °F 22.6 °F 26.6 °F 100% 30.26 in 0.5 mi ESE 3.5 mph - 0.00 in Fog , Snow Light Snow
9:26 AM 26.6 °F 20.0 °F 26.6 °F 100% 30.26 in 2.0 mi SE 5.8 mph - 0.00 in   Overcast
9:34 AM 26.6 °F 19.1 °F 26.6 °F 100% 30.26 in 3.0 mi SE 6.9 mph - 0.00 in   Overcast
9:42 AM 26.6 °F 21.2 °F 26.6 °F 100% 30.26 in 2.5 mi SE 4.6 mph - 0.00 in   Overcast
9:55 AM 27.0 °F 20.5 °F 26.1 °F 96% 30.32 in 3.0 mi East 5.8 mph - 0.00 in Snow Light Snow
10:44 AM 28.4 °F 23.3 °F 26.6 °F 93% 30.26 in 2.5 mi SE 4.6 mph - 0.00 in   Overcast
10:51 AM 28.4 °F 22.2 °F 26.6 °F 93% 30.26 in 4.0 mi ESE 5.8 mph - 0.00 in   Overcast
10:55 AM 28.0 °F 21.7 °F 27.0 °F 96% 30.32 in 4.0 mi East 5.8 mph - 0.00 in   Overcast
11:55 AM 30.0 °F - 28.0 °F 92% 30.32 in 10.0 mi Calm Calm - N/A   Overcast
12:55 PM 30.9 °F 26.2 °F 28.9 °F 92% 30.30 in 10.0 mi East 4.6 mph - N/A   Overcast
1:39 PM 30.2 °F 25.4 °F 28.4 °F 93% 30.22 in 10.0 mi ESE 4.6 mph - N/A   Overcast
1:55 PM 30.9 °F 26.2 °F 28.0 °F 89% 30.29 in 10.0 mi East 4.6 mph - N/A   Overcast
2:05 PM 30.2 °F 24.3 °F 26.6 °F 86% 30.22 in 10.0 mi ESE 5.8 mph - N/A   Overcast
2:55 PM 30.9 °F 25.2 °F 27.0 °F 85% 30.28 in 10.0 mi East 5.8 mph - N/A   Overcast
3:55 PM 32.0 °F 28.7 °F 27.0 °F 82% 30.29 in 10.0 mi East 3.5 mph - N/A   Overcast
4:55 PM 32.0 °F - 26.1 °F 79% 30.30 in 10.0 mi Calm Calm - N/A   Overcast
5:55 PM 32.0 °F 28.7 °F 27.0 °F 82% 30.30 in 10.0 mi East 3.5 mph - N/A   Overcast
6:55 PM 32.0 °F - 27.0 °F 82% 30.31 in 10.0 mi Calm Calm - N/A   Overcast
7:55 PM 30.9 °F 25.2 °F 27.0 °F 85% 30.31 in 10.0 mi SE 5.8 mph - N/A   Overcast
8:55 PM 30.9 °F 27.5 °F 27.0 °F 85% 30.31 in 10.0 mi ESE 3.5 mph - N/A   Overcast
9:55 PM 30.9 °F 27.5 °F 27.0 °F 85% 30.31 in 10.0 mi ESE 3.5 mph - N/A   Overcast
10:55 PM 30.9 °F - 26.1 °F 82% 30.31 in 10.0 mi Calm Calm - N/A   Overcast